Weather reports worldwide

Advertisment
Ajaccio, France (7761): temperature & dewpoint: 02.08.2020 05:00:00 - 08.08.2020 05:00:00 (CEST)Ajaccio, France (7761): temperature 5cm: 02.08.2020 05:00:00 - 08.08.2020 05:00:00 (CEST)Ajaccio, France (7761): temperature -20cm & temperature -100cm: 02.08.2020 05:00:00 - 08.08.2020 05:00:00 (CEST)Ajaccio, France (7761): wind speed & gusts: 02.08.2020 05:00:00 - 08.08.2020 05:00:00 (CEST)Ajaccio, France (7761): wind direction: 02.08.2020 05:00:00 - 08.08.2020 05:00:00 (CEST)Ajaccio, France (7761): reduced air pressure: 02.08.2020 05:00:00 - 08.08.2020 05:00:00 (CEST)Ajaccio, France (7761): visibility: 02.08.2020 05:00:00 - 08.08.2020 05:00:00 (CEST)Ajaccio, France (7761): sunshine duration: 02.08.2020 05:00:00 - 08.08.2020 05:00:00 (CEST)Ajaccio, France (7761): precipitation: 02.08.2020 05:00:00 - 08.08.2020 05:00:00 (CEST)
Date & Time tt [°C] td [°C] tt 5cm [°C] tt -20cm [°C] tt -100cm [°C] ff [km/h] ff [kn] fx [km/h] fx [kn] dd ppp [hPa] vv [km] sd [min] rr [mm]
08.08.2020 05:00:00 19,5 15,8 18,8 33,6 29,3 9 5 14 8 ENE 1017,8 39 0 0,0
08.08.2020 04:00:00 20,2 16,0 19,3 33,8 29,4 11 6 18 10 NE 1017,9 43 0 0,0
08.08.2020 03:00:00 21,2 16,2 20,5 33,8 29,3 15 8 19 11 NE 1018,0 52 0 0,0
08.08.2020 02:00:00 21,6 16,3 20,7 33,9 29,2 12 7 18 10 NE 1018,0 52 0 0,0
08.08.2020 01:00:00 21,6 17,0 20,7 34,0 29,3 11 6 16 9 NE 1018,3 46 0 0,0
08.08.2020 00:00:00 22,1 17,9 21,3 34,0 29,3 9 5 12 7 NE 1018,4 45 0 0,0
07.08.2020 23:00:00 23,8 18,0 22,7 33,9 29,3 7 4 11 6 NE 1017,9 37 0 0,0
07.08.2020 22:00:00 24,3 20,0 23,7 33,7 29,3 7 4 9 5 NE 1017,6 25 0 0,0
07.08.2020 21:00:00 25,5 21,4 24,5 33,5 29,3 2 1 10 6 E 1017,1 33 7 0,0
07.08.2020 20:00:00 27,0 22,0 27,7 33,1 29,1 8 5 25 14 SSW 1016,8 43 60 0,0
07.08.2020 19:00:00 28,0 21,1 30,9 33,0 29,3 11 6 24 13 SW 1016,6 36 60 0,0
07.08.2020 18:00:00 28,7 21,2 30,8 32,7 29,3 18 10 26 14 SSW 1016,7 53 60 0,0
07.08.2020 17:00:00 29,2 20,6 32,1 32,4 29,3 19 10 29 16 SW 1016,6 41 60 0,0
07.08.2020 16:00:00 28,7 19,9 33,4 32,3 29,3 19 10 35 19 WSW 1016,7 43 60 0,0
07.08.2020 15:00:00 29,2 19,5 36,7 32,1 29,3 17 9 27 15 SW 1017,0 20 60 0,0
07.08.2020 14:00:00 28,7 19,6 37,0 32,1 29,3 20 11 30 16 WSW 1017,1 45 60 0,0
07.08.2020 13:00:00 28,7 19,6 37,6 32,1 29,3 18 10 26 14 SW 1017,1 53 60 0,0
07.08.2020 12:00:00 28,0 20,6 35,9 32,2 29,3 17 9 25 14 SW 1017,3 58 60 0,0
07.08.2020 11:00:00 27,1 19,2 35,0 32,4 29,3 13 7 25 14 WSW 1017,3 58 60 0,0
07.08.2020 10:00:00 26,5 17,8 30,8 32,6 29,3 10 6 21 11 SSW 1017,3 60 60 0,0
07.08.2020 09:00:00 25,5 16,4 24,5 32,8 29,3 8 5 16 8 S 1017,2 39 60 0,0
07.08.2020 08:00:00 21,7 15,3 18,9 32,9 29,3 7 4 17 9 NNE 1016,9 43 60 0,0
07.08.2020 07:00:00 18,9 15,0 18,1 33,2 29,4 10 6 19 10 NE 1016,5 58 11 0,0
07.08.2020 06:00:00 18,8 14,9 18,1 33,3 29,4 13 7 19 10 NNE 1016,3 60 0 0,0
07.08.2020 05:00:00 18,8 15,8 18,0 33,5 29,3 9 5 16 9 NE 1016,3 60 0 0,0
07.08.2020 04:00:00 20,2 16,0 19,4 33,6 29,3 12 6 18 10 NNE 1016,6 60 0 0,0
07.08.2020 03:00:00 20,4 16,6 19,6 33,7 29,4 10 5 17 9 NE 1016,8 60 0 0,0
07.08.2020 02:00:00 21,1 16,9 20,5 33,8 29,4 10 6 16 9 NNE 1017,0 60 0 0,0
07.08.2020 01:00:00 21,9 17,9 21,3 33,8 29,4 9 5 13 7 NE 1017,2 60 0 0,0
07.08.2020 00:00:00 23,0 19,4 22,1 33,8 29,3 9 5 16 9 ENE 1016,9 60 0 0,0
06.08.2020 23:00:00 23,8 19,9 23,0 33,7 29,4 6 3 13 7 E 1016,6 60 0 0,0
06.08.2020 22:00:00 24,4 20,3 23,8 33,6 29,4 8 4 19 11 SE 1016,4 60 0 0,0
06.08.2020 21:00:00 25,1 20,6 24,7 33,3 29,3 13 7 23 12 S 1015,7 60 8 0,0
06.08.2020 20:00:00 26,8 20,9 27,2 33,0 29,4 14 8 25 13 S 1015,1 57 60 0,0
06.08.2020 19:00:00 28,4 19,9 30,5 32,8 29,4 14 8 25 14 S 1014,9 44 60 0,0
06.08.2020 18:00:00 30,0 16,8 31,7 32,4 29,3 10 6 27 15 S 1014,9 57 60 0,0
06.08.2020 17:00:00 29,6 19,6 32,0 32,2 29,4 16 9 33 18 S 1014,8 55 60 0,0
06.08.2020 16:00:00 30,9 17,9 35,2 32,0 29,4 16 8 33 18 S 1014,8 47 60 0,0
06.08.2020 15:00:00 29,6 19,0 35,0 31,9 29,4 24 13 37 20 S 1015,0 45 60 0,0
06.08.2020 14:00:00 28,9 20,1 34,7 31,8 29,4 25 13 32 18 S 1015,1 50 60 0,0
06.08.2020 13:00:00 28,3 20,6 37,0 31,9 29,4 21 12 30 16 SSW 1015,3 56 60 0,0
06.08.2020 12:00:00 27,8 20,4 36,1 32,0 29,4 20 11 29 16 SW 1015,4 60 60 0,0
06.08.2020 11:00:00 27,0 18,3 34,9 32,1 29,4 16 9 24 13 SW 1015,5 60 60 0,0
06.08.2020 10:00:00 26,2 16,4 30,6 32,3 29,4 9 5 16 9 SW 1015,1 60 60 0,0
06.08.2020 09:00:00 24,7 15,1 23,9 32,5 29,4 5 3 11 6 N 1014,9 49 60 0,0
06.08.2020 08:00:00 20,7 15,0 18,3 32,7 29,4 9 5 16 9 NE 1014,9 51 60 0,0
06.08.2020 07:00:00 18,6 14,5 17,6 32,8 29,4 8 5 16 9 NE 1014,5 59 13 0,0
06.08.2020 06:00:00 18,8 14,1 17,8 33,0 29,4 9 5 20 11 NNE 1014,2 60 0 0,0
06.08.2020 05:00:00 18,7 14,4 17,9 33,2 29,4 14 7 22 12 NNE 1013,9 60 0 0,0
06.08.2020 04:00:00 18,8 14,7 18,2 33,3 29,4 12 7 18 10 NE 1014,0 60 0 0,0
06.08.2020 03:00:00 19,4 14,9 18,7 33,4 29,4 9 5 17 9 NE 1014,0 60 0 0,0
06.08.2020 02:00:00 20,2 15,2 19,4 33,6 29,4 12 7 19 10 NNE 1014,0 60 0 0,0
06.08.2020 01:00:00 21,0 15,3 20,2 33,6 29,4 9 5 17 9 NE 1014,0 60 0 0,0
06.08.2020 00:00:00 22,0 15,6 21,2 33,6 29,4 11 6 19 11 NE 1013,8 60 0 0,0
05.08.2020 23:00:00 22,7 16,3 21,8 33,5 29,4 10 5 14 8 NE 1013,4 58 0 0,0
05.08.2020 22:00:00 24,4 15,9 22,9 33,4 29,4 5 3 19 10 S 1012,9 60 0 0,0
05.08.2020 21:00:00 25,2 17,1 24,7 33,1 29,4 16 9 33 18 SSW 1012,1 60 10 0,0
05.08.2020 20:00:00 26,3 17,6 26,7 32,9 29,4 24 13 35 19 SSW 1011,3 50 60 0,0
05.08.2020 19:00:00 27,3 17,5 29,6 32,6 29,4 21 11 34 18 S 1010,9 56 60 0,0
05.08.2020 18:00:00 27,9 17,4 29,8 32,3 29,4 23 12 35 19 S 1010,8 55 60 0,0
05.08.2020 17:00:00 28,7 18,5 30,9 32,1 29,4 25 13 35 19 S 1010,7 55 60 0,0
05.08.2020 16:00:00 29,0 18,1 32,0 31,8 29,4 24 13 34 19 SSW 1010,8 39 60 0,0
05.08.2020 15:00:00 28,4 19,9 36,0 31,7 29,4 24 13 37 20 SSW 1010,9 38 60 0,0
05.08.2020 14:00:00 27,8 19,8 35,9 31,7 29,4 26 14 38 20 SW 1011,1 20 60 0,0
05.08.2020 13:00:00 27,6 19,1 35,5 31,7 29,4 21 12 37 20 SW 1011,2 47 60 0,0
05.08.2020 12:00:00 26,4 18,5 35,0 31,8 29,4 21 11 31 17 WSW 1011,2 43 60 0,0
05.08.2020 11:00:00 25,9 17,5 34,5 32,0 29,4 15 8 35 19 WSW 1011,1 20 60 0,0
05.08.2020 10:00:00 25,7 12,5 29,5 32,2 29,4 9 5 15 8 SSW 1010,9 45 60 0,0
05.08.2020 09:00:00 24,2 11,8 22,6 32,5 29,4 5 3 19 10 ENE 1010,7 57 60 0,0
05.08.2020 08:00:00 19,2 12,2 15,6 32,7 29,4 12 6 22 12 NNE 1010,5 49 60 0,0
05.08.2020 07:00:00 15,8 11,8 14,8 32,9 29,4 14 8 20 11 NE 1010,3 45 14 0,0
05.08.2020 06:00:00 16,3 12,1 15,1 33,1 29,4 9 5 19 10 ENE 1010,0 60 0 0,0
05.08.2020 05:00:00 16,0 12,4 15,0 33,3 29,4 9 5 17 9 NE 1009,9 55 0 0,0
05.08.2020 04:00:00 16,5 13,0 15,5 33,5 29,5 9 5 14 8 NE 1009,9 56 0 0,0
05.08.2020 03:00:00 17,9 13,8 16,5 33,6 29,4 7 4 14 7 NE 1010,0 52 0 0,0
05.08.2020 02:00:00 18,3 14,4 16,9 33,7 29,4 9 5 17 9 NE 1010,1 52 0 0,0
05.08.2020 01:00:00 18,7 14,4 17,7 33,7 29,5 12 7 16 9 NE 1010,1 52 0 0,0
05.08.2020 00:00:00 19,8 14,6 18,9 33,7 29,4 10 6 16 9 NE 1010,4 54 0 0,0
04.08.2020 23:00:00 21,4 14,5 20,7 33,7 29,4 9 5 18 10 NNE 1010,2 60 0 0,0
04.08.2020 22:00:00 21,7 14,8 21,0 33,5 29,4 8 5 13 7 E 1009,8 59 0 0,0
04.08.2020 21:00:00 23,3 15,9 22,5 33,4 29,4 5 3 23 12 SE 1009,3 43 0 0,0
04.08.2020 20:00:00 24,6 16,1 25,6 33,1 29,4 8 5 21 12 S 1008,8 46 0 0,0
04.08.2020 19:00:00 25,4 16,3 28,6 32,9 29,4 16 8 25 14 SSW 1008,4 20 11 0,0
04.08.2020 18:00:00 25,5 16,1 28,4 32,6 29,4 15 8 29 16 SW 1008,3 20 60 0,0
04.08.2020 17:00:00 25,9 14,7 29,1 32,3 29,4 17 9 29 16 SSW 1008,3 40 60 0,0
04.08.2020 16:00:00 26,0 14,5 30,9 32,2 29,4 18 10 29 16 SSW 1008,2 34 60 0,0
04.08.2020 15:00:00 26,1 13,6 33,5 32,0 29,4 19 10 31 17 SW 1008,3 32 60 0,0
04.08.2020 14:00:00 26,1 14,2 33,9 32,0 29,4 19 11 32 17 SW 1008,3 33 60 0,0
04.08.2020 13:00:00 25,9 13,4 34,1 32,1 29,4 19 10 37 20 SW 1007,9 34 60 0,0
04.08.2020 12:00:00 25,4 14,2 34,0 32,2 29,4 24 13 33 18 SW 1008,0 38 60 0,0
04.08.2020 11:00:00 25,4 14,2 32,9 32,3 29,4 19 10 32 18 SW 1006,9 20 60 0,0
04.08.2020 10:00:00 25,0 14,2 24,6 32,6 29,4 18 10 27 15 SW 1007,0 20 31 0,0
04.08.2020 09:00:00 23,1 13,8 21,8 32,7 29,4 9 5 38 21 NW 1007,2 20 12 0,0
04.08.2020 08:00:00 20,2 13,9 18,9 32,9 29,4 6 3 13 7 NNE 1006,9 20 0 0,0
04.08.2020 07:00:00 19,1 13,5 18,2 33,0 29,4 7 4 11 6 ENE 1006,4 43 0 0,0
04.08.2020 06:00:00 21,0 12,7 19,7 33,2 29,4 2 1 24 13 NNE 1006,5 42 0 0,0
04.08.2020 05:00:00 22,9 13,7 21,7 33,4 29,4 18 10 26 14 W 1006,6 36 0 0,0
04.08.2020 04:00:00 23,2 13,1 21,8 33,5 29,4 16 9 27 15 W 1006,9 42 0 0,0
04.08.2020 03:00:00 23,4 14,4 22,3 33,7 29,4 19 10 29 16 W 1006,9 33 0 0,0
04.08.2020 02:00:00 24,0 15,5 22,8 33,8 29,4 14 8 36 19 W 1007,4 30 0 0,0
04.08.2020 01:00:00 24,6 14,1 21,3 33,9 29,4 21 11 44 24 W 1007,6 40 0 0,0
04.08.2020 00:00:00 21,9 16,2 20,3 33,9 29,4 10 5 37 20 W 1007,8 36 0 0,0
03.08.2020 23:00:00 24,4 16,1 23,2 33,9 29,4 12 7 33 18 W 1007,8 32 0 0,0
03.08.2020 22:00:00 24,7 16,4 23,8 33,8 29,4 13 7 34 18 W 1008,0 34 0 0,0
03.08.2020 21:00:00 24,7 17,2 24,1 33,7 29,4 19 10 33 18 W 1007,8 35 8 0,0
03.08.2020 20:00:00 25,6 17,8 26,2 33,5 29,4 23 12 48 26 W 1007,9 31 52 0,0
03.08.2020 19:00:00 25,6 18,3 27,0 33,4 29,4 20 11 34 18 SW 1007,9 20 51 0,0
03.08.2020 18:00:00 26,9 19,0 28,8 33,2 29,3 22 12 39 21 SW 1008,0 20 60 0,0
03.08.2020 17:00:00 27,5 19,6 30,2 33,2 29,3 27 15 49 26 WSW 1008,2 20 60 0,0
03.08.2020 16:00:00 27,6 19,4 30,7 33,1 29,4 33 18 45 24 WSW 1008,4 18 58 0,0
03.08.2020 15:00:00 28,5 20,0 31,2 33,1 29,3 23 12 34 18 SW 1008,6 19 42 0,0
03.08.2020 14:00:00 27,4 19,7 30,7 33,1 29,3 18 10 36 20 SW 1009,3 19 1 0,0
03.08.2020 13:00:00 27,2 20,8 31,0 33,2 29,3 24 13 34 19 WSW 1009,8 19 20 0,0
03.08.2020 12:00:00 28,6 21,1 32,0 33,4 29,3 20 11 27 15 SW 1009,1 20 33 0,0
03.08.2020 11:00:00 27,1 21,4 28,7 33,5 29,3 11 6 20 11 SW 1009,2 19 8 0,0
03.08.2020 10:00:00 26,0 20,1 26,1 33,7 29,3 5 3 15 8 NNE 1009,2 20 0 0,0
03.08.2020 09:00:00 24,5 19,3 22,8 33,9 29,3 8 4 15 8 NNE 1009,5 19 0 0,0
03.08.2020 08:00:00 21,9 18,3 21,2 34,0 29,3 11 6 18 10 NE 1009,4 20 6 0,0
03.08.2020 07:00:00 21,1 18,5 20,5 34,3 29,3 9 5 17 9 NE 1009,2 21 3 0,0
03.08.2020 06:00:00 21,4 18,6 20,5 34,4 29,3 10 5 20 11 NE 1009,3 20 0 0,0
03.08.2020 05:00:00 21,4 19,1 20,9 34,6 29,3 11 6 16 9 NE 1009,2 19 0 0,0
03.08.2020 04:00:00 21,7 19,8 21,1 34,7 29,3 9 5 13 7 NE 1009,6 18 0 0,0
03.08.2020 03:00:00 22,7 20,2 22,0 34,8 29,3 8 4 10 5 NE 1010,0 16 0 0,0
03.08.2020 02:00:00 23,6 20,9 22,5 34,9 29,3 4 2 9 5 ESE 1010,2 15 0 0,0
03.08.2020 01:00:00 24,2 21,3 23,4 34,9 29,3 6 4 10 6 NE 1010,4 18 0 0,0
03.08.2020 00:00:00 24,7 21,8 23,9 34,9 29,3 6 3 10 5 NE 1010,6 20 0 0,0
02.08.2020 23:00:00 25,2 21,7 24,3 34,9 29,3 4 2 10 5 E 1010,7 22 0 0,0
02.08.2020 22:00:00 25,5 21,8 24,3 34,7 29,3 5 3 11 6 SE 1010,1 20 0 0,0
02.08.2020 21:00:00 26,1 22,0 25,7 34,5 29,3 10 5 20 11 SW 1009,8 26 6 0,0
02.08.2020 20:00:00 27,4 22,8 28,5 34,3 29,3 13 7 23 13 SW 1009,9 26 60 0,0
02.08.2020 19:00:00 28,6 23,1 32,2 34,0 29,3 14 7 25 13 SW 1009,9 20 60 0,0
02.08.2020 18:00:00 29,8 23,7 32,7 33,7 29,3 16 9 26 14 SSW 1010,2 20 60 0,0
02.08.2020 17:00:00 30,1 23,8 32,6 33,5 29,3 18 10 24 13 SSW 1010,2 20 60 0,0
02.08.2020 16:00:00 30,6 23,3 35,5 33,2 29,2 17 9 31 17 SSW 1010,5 19 60 0,0
02.08.2020 15:00:00 30,3 24,2 38,2 33,1 29,3 21 11 31 17 SW 1010,8 18 60 0,0
02.08.2020 14:00:00 30,6 25,2 39,4 33,0 29,2 21 11 32 17 SW 1011,0 18 60 0,0
02.08.2020 13:00:00 30,6 24,7 39,3 33,1 29,2 23 12 38 21 SW 1011,1 19 60 0,0
02.08.2020 12:00:00 30,4 23,8 39,0 33,2 29,2 18 10 32 17 SW 1011,1 46 60 0,0
02.08.2020 11:00:00 29,9 21,6 38,3 33,3 29,2 12 7 21 12 WSW 1011,1 20 60 0,0
02.08.2020 10:00:00 30,6 21,4 33,1 33,5 29,2 7 4 13 7 WSW 1011,2 20 60 0,0
02.08.2020 09:00:00 28,1 18,2 27,0 33,7 29,2 6 3 15 8 NNE 1011,5 42 60 0,0
02.08.2020 08:00:00 24,4 15,6 21,2 33,9 29,2 9 5 19 10 NE 1011,5 49 60 0,0
02.08.2020 07:00:00 20,9 15,2 19,4 34,1 29,2 14 8 20 11 NE 1011,6 41 3 0,0
02.08.2020 06:00:00 20,4 15,6 19,4 34,3 29,2 8 5 13 7 NNE 1011,8 40 0 0,0
02.08.2020 05:00:00 21,2 15,5 19,5 34,5 29,2 10 5 13 7 NNE 1011,0 37 0 0,0

tt = temperature
td = dewpoint
tt 5cm = temperature 5cm
tt -20cm = temperature -20cm
tt -100cm = temperature -100cm
ff = wind speed
fx = gusts
dd = wind direction
ppp = reduced air pressure
vv = visibility
sd = sunshine duration
rr = precipitation

Next stations